Location: Mexico
(19.4000°N, 99.1500°W)
Time: 18:06:48
(UTC-06:00)

ISS - Pass Details

Date: 22 February 2020
Orbit: 415 x 422 km, 51.6° (Epoch: 27 February)

Event Time Altitude Azimuth Distance (km) Brightness Sun altitude
Exits shadow 05:51:46 13° 347° (NNW) 1,305 -1.5 -17.0°
Drops below altitude 10° 05:52:31 10° 358° (N) 1,492 -1.0 -16.9°
Sets 05:55:07 0° 19° (NNE) 2,358 0.2 -16.3°
